TimeCDT,TemperatureF,Dew PointF,Humidity,Sea Level PressureIn,VisibilityMPH,Wind Direction,Wind SpeedMPH,Gust SpeedMPH,PrecipitationIn,Events,Conditions,WindDirDegrees,DateUTC
12:13 AM,64.4,44.6,49,29.67,10.0,South,18.4,26.5,N/A,,Clear,170,2013-09-30 05:13:00
12:33 AM,64.4,46.4,52,29.66,10.0,South,21.9,28.8,N/A,,Clear,170,2013-09-30 05:33:00
12:53 AM,62.6,46.4,55,29.66,10.0,South,20.7,25.3,N/A,,Clear,180,2013-09-30 05:53:00
1:13 AM,62.6,46.4,55,29.65,10.0,South,18.4,25.3,N/A,,Clear,180,2013-09-30 06:13:00
1:33 AM,62.6,46.4,55,29.66,10.0,South,17.3,23.0,N/A,,Clear,180,2013-09-30 06:33:00
1:53 AM,62.6,44.6,52,29.66,10.0,South,17.3,-,N/A,,Clear,180,2013-09-30 06:53:00
2:13 AM,62.6,44.6,52,29.65,10.0,South,16.1,21.9,N/A,,Clear,180,2013-09-30 07:13:00
2:33 AM,62.6,44.6,52,29.64,10.0,South,15.0,-,N/A,,Clear,180,2013-09-30 07:33:00
2:54 AM,60.8,44.6,55,29.64,10.0,South,13.8,-,N/A,,Clear,180,2013-09-30 07:54:00
3:13 AM,60.8,44.6,55,29.63,10.0,South,15.0,20.7,N/A,,Clear,180,2013-09-30 08:13:00
3:33 AM,59.0,44.6,59,29.63,10.0,South,13.8,-,N/A,,Clear,180,2013-09-30 08:33:00
3:53 AM,57.2,44.6,63,29.63,10.0,South,8.1,-,N/A,,Clear,190,2013-09-30 08:53:00
4:13 AM,57.2,46.4,67,29.62,10.0,South,10.4,-,N/A,,Clear,180,2013-09-30 09:13:00
4:34 AM,57.2,46.4,67,29.62,10.0,South,10.4,-,N/A,,Clear,190,2013-09-30 09:34:00
4:53 AM,57.2,46.4,67,29.62,10.0,South,9.2,-,N/A,,Clear,190,2013-09-30 09:53:00
5:13 AM,55.4,44.6,67,29.62,10.0,South,9.2,-,N/A,,Clear,190,2013-09-30 10:13:00
5:33 AM,53.6,44.6,72,29.62,10.0,South,8.1,-,N/A,,Clear,180,2013-09-30 10:33:00
5:53 AM,53.6,44.6,72,29.62,10.0,South,5.8,-,N/A,,Clear,180,2013-09-30 10:53:00
6:13 AM,53.6,44.6,72,29.62,10.0,South,4.6,-,N/A,,Clear,170,2013-09-30 11:13:00
6:33 AM,51.8,44.6,76,29.61,10.0,South,5.8,-,N/A,,Clear,170,2013-09-30 11:33:00
6:53 AM,51.8,44.6,76,29.62,10.0,South,6.9,-,N/A,,Clear,180,2013-09-30 11:53:00
7:13 AM,50.0,44.6,82,29.62,10.0,South,6.9,-,N/A,,Clear,180,2013-09-30 12:13:00
7:33 AM,50.0,44.6,82,29.62,10.0,South,9.2,-,N/A,,Clear,170,2013-09-30 12:33:00
7:53 AM,51.8,46.4,82,29.62,10.0,South,8.1,-,N/A,,Clear,180,2013-09-30 12:53:00
8:13 AM,51.8,46.4,82,29.62,10.0,South,6.9,-,N/A,,Clear,170,2013-09-30 13:13:00
8:33 AM,53.6,46.4,77,29.60,10.0,South,5.8,-,N/A,,Clear,170,2013-09-30 13:33:00
8:54 AM,55.4,46.4,72,29.60,10.0,South,10.4,-,N/A,,Clear,180,2013-09-30 13:54:00
9:13 AM,57.2,46.4,67,29.61,10.0,South,11.5,-,N/A,,Clear,180,2013-09-30 14:13:00
9:33 AM,59.0,48.2,67,29.62,10.0,South,10.4,-,N/A,,Clear,190,2013-09-30 14:33:00
9:53 AM,60.8,48.2,63,29.62,10.0,South,9.2,-,N/A,,Clear,180,2013-09-30 14:53:00
10:13 AM,62.6,48.2,59,29.62,10.0,South,9.2,-,N/A,,Clear,190,2013-09-30 15:13:00
10:33 AM,64.4,48.2,56,29.61,10.0,South,11.5,-,N/A,,Clear,180,2013-09-30 15:33:00
10:53 AM,64.4,48.2,56,29.62,10.0,SSW,10.4,-,N/A,,Clear,200,2013-09-30 15:53:00
11:13 AM,66.2,48.2,52,29.62,10.0,SSW,10.4,-,N/A,,Clear,200,2013-09-30 16:13:00
11:33 AM,68.0,48.2,49,29.62,10.0,SSW,10.4,-,N/A,,Clear,210,2013-09-30 16:33:00
11:53 AM,68.0,48.2,49,29.61,10.0,South,8.1,-,N/A,,Clear,180,2013-09-30 16:53:00
12:13 PM,69.8,50.0,49,29.61,10.0,South,6.9,-,N/A,,Clear,190,2013-09-30 17:13:00
12:34 PM,69.8,50.0,49,29.61,10.0,SSE,11.5,-,N/A,,Clear,160,2013-09-30 17:34:00
12:53 PM,71.6,50.0,46,29.61,10.0,South,9.2,-,N/A,,Clear,170,2013-09-30 17:53:00
1:13 PM,71.6,48.2,43,29.61,10.0,South,6.9,-,N/A,,Clear,180,2013-09-30 18:13:00
1:33 PM,73.4,50.0,44,29.61,10.0,South,9.2,-,N/A,,Clear,180,2013-09-30 18:33:00
1:53 PM,73.4,48.2,41,29.60,10.0,South,10.4,-,N/A,,Clear,190,2013-09-30 18:53:00
2:13 PM,73.4,48.2,41,29.59,10.0,South,6.9,-,N/A,,Clear,180,2013-09-30 19:13:00
2:33 PM,73.4,50.0,44,29.59,10.0,SSE,8.1,-,N/A,,Clear,160,2013-09-30 19:33:00
2:53 PM,75.2,48.2,38,29.60,10.0,South,9.2,-,N/A,,Clear,180,2013-09-30 19:53:00
3:13 PM,75.2,50.0,41,29.59,10.0,South,9.2,-,N/A,,Clear,180,2013-09-30 20:13:00
3:33 PM,75.2,48.2,38,29.58,10.0,SSE,11.5,16.1,N/A,,Clear,150,2013-09-30 20:33:00
3:53 PM,75.2,48.2,38,29.58,10.0,South,8.1,-,N/A,,Clear,180,2013-09-30 20:53:00
4:13 PM,75.2,48.2,38,29.58,10.0,South,12.7,-,N/A,,Clear,180,2013-09-30 21:13:00
4:33 PM,75.2,48.2,38,29.58,10.0,South,9.2,-,N/A,,Clear,170,2013-09-30 21:33:00
4:53 PM,77.0,48.2,36,29.57,10.0,SSE,10.4,-,N/A,,Clear,160,2013-09-30 21:53:00
5:13 PM,77.0,48.2,36,29.57,10.0,SSE,10.4,-,N/A,,Clear,160,2013-09-30 22:13:00
5:33 PM,77.0,50.0,39,29.57,10.0,South,8.1,-,N/A,,Clear,180,2013-09-30 22:33:00
5:54 PM,71.6,51.8,50,29.58,10.0,SSE,3.5,-,N/A,,Clear,160,2013-09-30 22:54:00
6:13 PM,71.6,51.8,50,29.57,10.0,ESE,4.6,-,N/A,,Clear,120,2013-09-30 23:13:00
6:33 PM,71.6,53.6,53,29.57,10.0,ESE,4.6,-,N/A,,Clear,120,2013-09-30 23:33:00
6:53 PM,69.8,53.6,56,29.57,10.0,SE,6.9,-,N/A,,Clear,140,2013-09-30 23:53:00
7:13 PM,68.0,53.6,60,29.57,10.0,SE,5.8,-,N/A,,Clear,130,2013-10-01 00:13:00
7:33 PM,66.2,53.6,64,29.57,10.0,SE,5.8,-,N/A,,Clear,130,2013-10-01 00:33:00
7:53 PM,66.2,53.6,64,29.57,10.0,SE,5.8,-,N/A,,Clear,130,2013-10-01 00:53:00
8:13 PM,64.4,53.6,68,29.58,10.0,SSE,6.9,-,N/A,,Clear,150,2013-10-01 01:13:00
8:33 PM,64.4,53.6,68,29.58,10.0,SSE,8.1,-,N/A,,Clear,160,2013-10-01 01:33:00
8:53 PM,64.4,53.6,68,29.58,10.0,South,6.9,-,N/A,,Clear,170,2013-10-01 01:53:00
9:13 PM,62.6,51.8,68,29.58,10.0,SSE,6.9,-,N/A,,Clear,160,2013-10-01 02:13:00
9:34 PM,64.4,51.8,64,29.57,10.0,South,5.8,-,N/A,,Clear,170,2013-10-01 02:34:00
9:53 PM,62.6,51.8,68,29.57,10.0,SSE,5.8,-,N/A,,Clear,160,2013-10-01 02:53:00
10:13 PM,62.6,51.8,68,29.58,10.0,SSE,5.8,-,N/A,,Clear,160,2013-10-01 03:13:00
10:33 PM,62.6,51.8,68,29.57,10.0,SSE,5.8,-,N/A,,Clear,160,2013-10-01 03:33:00
10:53 PM,62.6,51.8,68,29.57,10.0,SSE,8.1,-,N/A,,Clear,160,2013-10-01 03:53:00
11:13 PM,62.6,51.8,68,29.57,10.0,SSE,8.1,-,N/A,,Clear,160,2013-10-01 04:13:00
11:33 PM,62.6,51.8,68,29.56,10.0,SSE,8.1,-,N/A,,Clear,160,2013-10-01 04:33:00
11:53 PM,64.4,51.8,64,29.55,10.0,SSE,6.9,-,N/A,,Clear,150,2013-10-01 04:53:00